Regional Weather Roundup
Issued by NWS Sioux Falls, SD

Home | Current Version | Previous Version | Text Only | Print | Product List | Glossary On
Versions: 1 2 3 4 5 6 7 8 9 10 11 12 13 14 15 16 17 18 19 20 21 22 23 24 25 26 27 28 29 30 31 32 33 34 35 36 37 38 39 40 41 42 43 44 45 46 47 48 49 50
000
ASUS43 KFSD 140810
RWRFSD

WEATHER ROUNDUP FOR SE SOUTH DAKOTA/SW MINNESOTA/NW IOWA
NATIONAL WEATHER SERVICE SIOUX FALLS SD
200 AM CST THU DEC 14 2017

NOTE: "FAIR" INDICATES FEW OR NO CLOUDS BELOW 12,000 FEET WITH NO
SIGNIFICANT WEATHER AND OR OBSTRUCTIONS TO VISIBILITY.


SDZ038>040-050-052>070-140900-
SOUTHEAST SOUTH DAKOTA

CITY           SKY/WX    TMP DP  RH WIND       PRES   REMARKS
BROOKINGS      CLOUDY    26  24  92 NE3       29.97S
CHAMBERLAIN    CLOUDY    31  28  86 W7        30.01F WCI  25
HURON          CLOUDY    33  27  78 NW7       29.98F WCI  27
MADISON        CLOUDY    28  28 100 N3        29.96F
MITCHELL       CLOUDY    34  26  72 W9        30.00F WCI  27
SIOUX FALLS    CLOUDY    29  27  92 CALM      29.98S
WINNER         FAIR      29  24  82 SW6       30.03F WCI  23
YANKTON        CLOUDY    33  24  69 W6        30.01F WCI  28
$$

MNZ071-072-080-081-089-090-097-098-140900-
SOUTHWEST MINNESOTA

CITY           SKY/WX    TMP DP  RH WIND       PRES   REMARKS
FAIRMONT       CLOUDY    19  15  84 N8        30.00R WCI   9
JACKSON        CLOUDY    23  18  80 MISG      29.98R
LUVERNE        CLOUDY    27  21  80 NE6       29.99S WCI  20
MARSHALL       CLOUDY    21  17  84 N13       30.00F WCI   9
MONTEVIDEO     CLOUDY    21  16  79 NW8       30.00S WCI  12
PIPESTONE      CLOUDY    23  21  93 NE3       29.96S
REDWOOD FALLS  CLOUDY    18  11  74 CALM      29.99F
WINDOM           N/A     21   9  58 NE3       29.98R
WORTHINGTON    CLOUDY    21  17  84 N15       29.98S WCI   8
$$

IAZ001>003-012>014-020>022-031-032-NEZ013-014-SDZ071-140900-
NORTHWEST IOWA

CITY           SKY/WX    TMP DP  RH WIND       PRES   REMARKS
CHEROKEE       CLOUDY    27  23  85 N8        30.00R WCI  19
DENISON        CLOUDY    30  25  80 N7        30.00F WCI  23
ESTHERVILLE    CLOUDY    21  16  81 N8        29.98R WCI  11
LE MARS        CLOUDY    30  27  86 CALM      30.00S
ORANGE CITY    CLOUDY    28  27  93 N3        29.99R
SHELDON        CLOUDY    25  23  93 N9        29.97S WCI  15
SIOUX CITY     CLOUDY    33  27  78 N8        30.01S WCI  26
SPENCER        CLOUDY    25  18  74 N14       29.99R WCI  13
STORM LAKE     CLOUDY    25  21  86 N12G18    29.98R WCI  14
$$

ABBREVIATIONS USED IN REMARKS
   TC - TEMPERATURE IN CELSIUS
  WCI - WIND CHILL INDEX
   HX - HEAT INDEX
  VSB - VISIBILITY





USA.gov is the U.S. government's official web portal to all federal, state and local government web resources and services.